• In Deutschland
  • Länderverzeichnis
  • Für 7 Tage
  • Wassertemperatur
  • Satellitenkarten
  • Wetterkarte
  • Widgets
  • user-avatar
    Anmelden

    Stündliche Wetter Kalgoorlie

    Heute, 24 November, Freitag

    Zeit Temperatur Niederschläge Wind Luftdruck Luftfeuchtigkeit
    00:00 +20°C° 0 mm 7 m/S 729 mmHg 53%
    01:00 +18°C° 0 mm 7 m/S 729 mmHg 56%
    02:00 +19°C° 0 mm 6 m/S 729 mmHg 59%
    03:00 +17°C° 0 mm 6 m/S 729 mmHg 62%
    04:00 +17°C° 0 mm 6 m/S 729 mmHg 65%
    05:00 +16°C° 0 mm 6 m/S 729 mmHg 68%
    06:00 +17°C° 0 mm 6 m/S 729 mmHg 62%
    07:00 +20°C° 0 mm 6 m/S 729 mmHg 56%
    08:00 +21°C° 0 mm 7 m/S 730 mmHg 52%
    09:00 +23°C° 0 mm 6 m/S 729 mmHg 45%
    10:00 +26°C° 0 mm 5 m/S 729 mmHg 37%
    11:00 +27°C° 0 mm 4 m/S 729 mmHg 30%
    12:00 +29°C° 0 mm 4 m/S 728 mmHg 26%
    13:00 +30°C° 0 mm 3 m/S 727 mmHg 23%
    14:00 +30°C° 0 mm 3 m/S 727 mmHg 22%
    15:00 +31°C° 0 mm 2 m/S 727 mmHg 21%
    16:00 +31°C° 0 mm 2 m/S 727 mmHg 20%
    17:00 +31°C° 0 mm 1 m/S 726 mmHg 19%
    18:00 +30°C° 0 mm 2 m/S 726 mmHg 20%
    19:00 +30°C° 0 mm 3 m/S 726 mmHg 21%
    20:00 +29°C° 0 mm 4 m/S 726 mmHg 22%
    21:00 +28°C° 0 mm 5 m/S 726 mmHg 23%
    22:00 +28°C° 0 mm 6 m/S 726 mmHg 25%
    23:00 +27°C° 0 mm 7 m/S 726 mmHg 27%

    Morgen, 25 November, Samstag

    Zeit Temperatur Niederschläge Wind Luftdruck Luftfeuchtigkeit
    00:00 +27°C° 0 mm 6 m/S 725 mmHg 29%
    01:00 +26°C° 0 mm 6 m/S 725 mmHg 31%
    02:00 +25°C° 0 mm 5 m/S 725 mmHg 34%
    03:00 +25°C° 0 mm 5 m/S 725 mmHg 36%
    04:00 +23°C° 0 mm 5 m/S 725 mmHg 38%
    05:00 +23°C° 0 mm 4 m/S 725 mmHg 40%
    06:00 +26°C° 0 mm 5 m/S 726 mmHg 36%
    07:00 +28°C° 0 mm 6 m/S 726 mmHg 32%
    08:00 +30°C° 0 mm 7 m/S 726 mmHg 28%
    09:00 +32°C° 0 mm 5 m/S 726 mmHg 25%
    10:00 +34°C° 0 mm 4 m/S 726 mmHg 21%
    11:00 +36°C° 0 mm 3 m/S 725 mmHg 18%
    12:00 +36°C° 0 mm 2 m/S 725 mmHg 17%
    13:00 +36°C° 0 mm 1 m/S 725 mmHg 15%
    14:00 +35°C° 0 mm 0 m/S 724 mmHg 14%
    15:00 +36°C° 0 mm 1 m/S 724 mmHg 14%
    16:00 +36°C° 0 mm 1 m/S 724 mmHg 14%
    17:00 +37°C° 0 mm 2 m/S 724 mmHg 14%
    18:00 +36°C° 0 mm 3 m/S 725 mmHg 17%
    19:00 +34°C° 0 mm 5 m/S 725 mmHg 20%
    20:00 +33°C° 0 mm 6 m/S 725 mmHg 22%
    21:00 +30°C° 0 mm 7 m/S 725 mmHg 29%
    22:00 +28°C° 0 mm 8 m/S 726 mmHg 37%
    23:00 +26°C° 0 mm 9 m/S 726 mmHg 44%

    übermorgen, 26 November, Sonntag

    Zeit Temperatur Niederschläge Wind Luftdruck Luftfeuchtigkeit
    00:00 +24°C° 0 mm 8 m/S 726 mmHg 48%
    01:00 +23°C° 0 mm 8 m/S 726 mmHg 52%
    02:00 +22°C° 0 mm 8 m/S 725 mmHg 56%
    03:00 +21°C° 0 mm 7 m/S 726 mmHg 56%
    04:00 +21°C° 0 mm 7 m/S 726 mmHg 56%
    05:00 +21°C° 0 mm 6 m/S 726 mmHg 56%
    06:00 +24°C° 0 mm 6 m/S 726 mmHg 46%
    07:00 +27°C° 0 mm 7 m/S 726 mmHg 37%
    08:00 +30°C° 0 mm 7 m/S 727 mmHg 27%
    09:00 +33°C° 0 mm 7 m/S 726 mmHg 24%
    10:00 +36°C° 0 mm 7 m/S 726 mmHg 20%
    11:00 +39°C° 0 mm 7 m/S 725 mmHg 17%
    12:00 +40°C° 0 mm 7 m/S 725 mmHg 15%
    13:00 +41°C° 0 mm 7 m/S 724 mmHg 14%
    14:00 +43°C° 0 mm 7 m/S 723 mmHg 13%
    15:00 +41°C° 0 mm 7 m/S 722 mmHg 14%
    16:00 +40°C° 0 mm 6 m/S 722 mmHg 16%
    17:00 +39°C° 0 mm 6 m/S 722 mmHg 17%
    18:00 +38°C° 0,3 mm 7 m/S 722 mmHg 20%
    19:00 +36°C° 0,3 mm 7 m/S 722 mmHg 23%
    20:00 +34°C° 0,3 mm 7 m/S 722 mmHg 25%
    21:00 +34°C° 0,2 mm 8 m/S 722 mmHg 26%
    22:00 +33°C° 0,2 mm 8 m/S 721 mmHg 28%
    23:00 +32°C° 0,2 mm 8 m/S 721 mmHg 29%

    27 November, Montag

    Zeit Temperatur Niederschläge Wind Luftdruck Luftfeuchtigkeit
    00:00 +32°C° 0,1 mm 8 m/S 721 mmHg 27%
    01:00 +31°C° 0,1 mm 8 m/S 720 mmHg 25%
    02:00 +31°C° 0,1 mm 9 m/S 720 mmHg 23%
    03:00 +29°C° 0 mm 9 m/S 720 mmHg 22%
    04:00 +29°C° 0 mm 8 m/S 720 mmHg 21%
    05:00 +28°C° 0 mm 8 m/S 720 mmHg 21%
    06:00 +31°C° 0 mm 9 m/S 720 mmHg 20%
    07:00 +33°C° 0 mm 10 m/S 720 mmHg 20%
    08:00 +36°C° 0 mm 11 m/S 721 mmHg 19%
    09:00 +38°C° 0 mm 10 m/S 720 mmHg 17%
    10:00 +40°C° 0 mm 8 m/S 720 mmHg 15%
    11:00 +43°C° 0 mm 7 m/S 720 mmHg 12%
    12:00 +43°C° 0 mm 7 m/S 719 mmHg 12%
    13:00 +43°C° 0 mm 8 m/S 718 mmHg 11%
    14:00 +43°C° 0 mm 9 m/S 717 mmHg 11%
    15:00 +43°C° 0 mm 9 m/S 718 mmHg 11%
    16:00 +42°C° 0 mm 9 m/S 718 mmHg 11%
    17:00 +42°C° 0 mm 9 m/S 718 mmHg 11%
    18:00 +39°C° 0 mm 8 m/S 718 mmHg 12%
    19:00 +38°C° 0 mm 6 m/S 719 mmHg 14%
    20:00 +35°C° 0 mm 4 m/S 719 mmHg 15%
    21:00 +33°C° 0 mm 5 m/S 719 mmHg 22%
    22:00 +30°C° 0 mm 5 m/S 719 mmHg 28%
    23:00 +28°C° 0 mm 5 m/S 720 mmHg 34%

    28 November, Dienstag

    Zeit Temperatur Niederschläge Wind Luftdruck Luftfeuchtigkeit
    00:00 +27°C° 0 mm 4 m/S 719 mmHg 39%
    01:00 +26°C° 0 mm 4 m/S 719 mmHg 43%
    02:00 +25°C° 0 mm 3 m/S 719 mmHg 48%
    03:00 +24°C° 0 mm 3 m/S 719 mmHg 51%
    04:00 +24°C° 0 mm 3 m/S 720 mmHg 53%
    05:00 +22°C° 0 mm 3 m/S 720 mmHg 56%
    06:00 +24°C° 0 mm 3 m/S 720 mmHg 52%
    07:00 +26°C° 0 mm 2 m/S 721 mmHg 48%
    08:00 +27°C° 0 mm 2 m/S 722 mmHg 43%
    09:00 +30°C° 0 mm 3 m/S 722 mmHg 35%
    10:00 +33°C° 0 mm 4 m/S 722 mmHg 28%
    11:00 +35°C° 0 mm 6 m/S 722 mmHg 20%
    12:00 +36°C° 0 mm 6 m/S 721 mmHg 18%
    13:00 +38°C° 0 mm 7 m/S 721 mmHg 16%
    14:00 +39°C° 0 mm 7 m/S 720 mmHg 14%
    15:00 +39°C° 0 mm 7 m/S 720 mmHg 14%
    16:00 +38°C° 0 mm 7 m/S 721 mmHg 14%
    17:00 +38°C° 0 mm 7 m/S 721 mmHg 15%
    18:00 +35°C° 0 mm 7 m/S 721 mmHg 19%
    19:00 +34°C° 0 mm 6 m/S 722 mmHg 24%
    20:00 +32°C° 0 mm 5 m/S 722 mmHg 29%
    21:00 +29°C° 0 mm 6 m/S 723 mmHg 36%
    22:00 +27°C° 0 mm 7 m/S 723 mmHg 44%
    23:00 +24°C° 0 mm 8 m/S 724 mmHg 52%

    29 November, Mittwoch

    Zeit Temperatur Niederschläge Wind Luftdruck Luftfeuchtigkeit
    00:00 +23°C° 0 mm 7 m/S 724 mmHg 55%
    01:00 +22°C° 0 mm 7 m/S 724 mmHg 59%
    02:00 +21°C° 0 mm 7 m/S 724 mmHg 63%
    03:00 +20°C° 0 mm 7 m/S 725 mmHg 65%
    04:00 +18°C° 0 mm 7 m/S 725 mmHg 67%
    05:00 +19°C° 0 mm 6 m/S 725 mmHg 69%
    06:00 +20°C° 0 mm 6 m/S 726 mmHg 64%
    07:00 +21°C° 0 mm 6 m/S 726 mmHg 59%
    08:00 +22°C° 0 mm 6 m/S 727 mmHg 53%
    09:00 +25°C° 0 mm 5 m/S 727 mmHg 47%
    10:00 +27°C° 0 mm 5 m/S 726 mmHg 41%
    11:00 +29°C° 0 mm 4 m/S 726 mmHg 35%
    12:00 +30°C° 0 mm 4 m/S 725 mmHg 32%
    13:00 +31°C° 0 mm 3 m/S 725 mmHg 28%
    14:00 +34°C° 0 mm 2 m/S 724 mmHg 24%
    15:00 +34°C° 0 mm 2 m/S 724 mmHg 23%
    16:00 +34°C° 0 mm 2 m/S 724 mmHg 22%
    17:00 +34°C° 0 mm 2 m/S 724 mmHg 21%
    18:00 +33°C° 0 mm 5 m/S 724 mmHg 24%
    19:00 +31°C° 0 mm 8 m/S 725 mmHg 28%
    20:00 +29°C° 0 mm 11 m/S 725 mmHg 32%
    21:00 +27°C° 0,2 mm 11 m/S 725 mmHg 38%
    22:00 +24°C° 0,2 mm 10 m/S 725 mmHg 45%
    23:00 +22°C° 0,2 mm 10 m/S 725 mmHg 51%
    Mehr zeigen